Location: *
(46.1006°N, 1.8394°E)
Time: 06:03:51
(UTC+00:00)

Cosmos 1452 Rocket - Pass Details

Date: 20 September 2019
Orbit: 768 x 774 km, 74.1° (Epoch: 15 October)

Event Time Altitude Azimuth Distance (km) Brightness Sun altitude
Exits shadow 19:38:51 27° 76° (ENE) 1,439 4.5 -18.4°
Drops below altitude 10° 19:42:11 10° 41° (NE) 2,316 5.8 -18.9°
Sets 19:44:48 0° 31° (NNE) 3,248 6.7 -19.3°
